Location: Dumbr?vi?a
(45.8833°N, 22.7000°E)
Time: 15:01:09
(UTC+00:00)

Meteor 1-13 Rocket - Pass Details

Date: 03 March 2021
Orbit: 830 x 913 km, 81.3° (Epoch: 15 April)

Event Time Altitude Azimuth Distance (km) Brightness Sun altitude
Rises 17:53:09 0° 351° (N) 3,558 7.7 -17.2°
Reaches altitude 10° 17:55:41 10° 355° (N) 2,609 6.9 -17.6°
Maximum altitude 18:01:35 61° 76° (ENE) 1,026 4.3 -18.6°
Enters shadow 18:06:03 17° 153° (SSE) 2,087 5.9 -19.4°
